Wind_Speed
24 23 22 22 23 22 21 20 20 19 19 18 18 17 17 17 17 17 17 17 17 16 16 16 16 15 15 14 14 13 13 13 12 12 12 11 11 11 11 10 10 10 10 10 10 10 10 10 9 9 10 10 9 9 8 8 7 7 6 6 5 5 5 6 6 6 7 7 8 8 8 9 10 10 10 11 11 11 13 13 14 14 14 14 14
26 26 23 23 24 25 23 22 21 21 20 19 19 18 18 18 18 17 17 18 18 17 17 17 17 16 16 16 15 15 14 14 14 14 14 14 14 14 14 13 13 12 12 12 13 12 12 11 10 10 10 10 10 9 9 8 8 7 7 7 6 6 6 7 7 7 8 7 8 9 9 10 11 11 11 12 12 12 13 14 15 15 16 16 15
27 28 26 26 27 27 25 24 23 23 22 21 20 20 19 19 18 18 18 18 18 18 18 18 18 17 17 17 16 16 16 15 15 15 16 16 16 16 16 15 15 14 13 14 14 13 12 11 11 11 10 10 10 10 10 9 9 8 8 7 7 7 7 8 8 8 8 9 8 9 10 11 12 12 13 13 14 14 14 15 16 17 17 17 17
29 29 28 29 28 27 26 25 25 25 24 24 22 22 21 20 19 19 19 19 18 18 18 18 18 18 18 18 18 17 17 17 16 17 17 17 17 17 17 16 16 15 14 14 14 14 13 12 12 12 11 11 11 11 10 10 9 8 8 8 8 8 8 8 8 9 9 9 9 10 11 12 13 14 14 15 15 15 15 15 16 17 18 19 19
29 28 29 30 29 28 27 27 27 27 26 26 25 24 23 22 21 20 20 20 19 19 19 19 19 19 18 18 18 19 19 18 18 18 18 18 17 17 17 17 17 17 16 15 15 15 14 14 14 13 13 12 12 12 11 11 10 9 9 9 8 9 9 9 9 10 11 11 11 11 11 12 13 14 15 15 16 17 16 16 17 17 18 18 19
28 28 29 30 29 29 29 28 28 27 27 27 26 26 25 24 23 22 21 21 20 20 20 20 19 19 19 19 19 19 19 19 19 19 19 19 18 18 18 18 17 17 17 16 16 16 16 15 15 15 14 14 13 13 13 12 11 10 10 10 10 9 9 10 11 11 11 12 12 12 12 12 12 13 14 15 17 18 17 16 16 16 17 18 19
30 29 29 29 29 28 28 29 29 28 28 28 27 27 27 26 25 24 23 21 21 21 21 20 19 19 20 20 19 19 20 20 20 20 20 20 20 19 19 18 18 17 17 17 17 17 17 16 16 16 16 16 15 14 14 14 14 13 11 12 12 12 11 12 12 12 12 13 14 15 15 15 14 14 15 16 18 20 19 17 16 16 18 19 20
31 30 29 29 29 29 28 29 29 30 29 28 28 28 27 27 26 25 24 23 21 21 21 21 20 20 21 21 20 20 20 20 21 21 21 21 21 21 20 19 19 18 18 18 18 18 17 17 18 17 17 17 17 16 16 16 16 16 15 15 16 15 15 14 13 14 14 15 15 16 16 17 17 16 16 17 20 21 21 19 17 17 19 21 21
32 32 31 30 30 30 29 29 28 29 31 30 29 29 28 27 26 25 25 24 23 22 21 21 21 21 22 22 21 23 22 22 22 22 22 23 22 22 21 21 20 20 19 19 18 18 18 18 19 19 18 19 19 19 19 19 19 20 19 19 18 17 18 17 16 16 17 18 18 18 18 19 19 19 18 18 19 20 20 17 14 16 20 21 21
34 34 33 32 32 31 30 31 30 30 32 31 30 30 29 28 28 27 26 25 24 23 22 22 22 22 23 23 24 25 24 23 23 23 23 24 24 23 23 23 22 21 21 22 21 20 20 20 20 19 20 21 21 21 22 22 22 23 22 21 20 19 19 20 20 19 19 20 21 21 21 20 21 21 20 20 19 19 19 16 13 15 20 23 22
36 36 36 36 35 34 33 33 32 32 33 32 31 31 30 30 30 29 27 27 26 26 25 25 24 23 24 25 25 26 27 26 25 25 25 26 25 24 24 24 24 23 24 24 24 23 22 22 22 22 23 24 23 23 24 24 24 25 24 23 22 22 21 22 22 23 22 23 23 23 23 23 23 23 22 21 20 19 20 20 19 19 22 24 23
40 38 38 38 38 37 35 34 33 34 34 33 33 32 31 31 32 31 29 29 28 27 28 29 28 26 26 27 28 28 29 29 27 26 27 27 27 26 26 27 27 26 27 27 27 26 24 24 25 25 26 27 25 24 24 25 26 26 26 25 25 25 24 24 24 24 24 24 25 26 26 24 25 25 24 22 22 21 22 23 24 24 26 27 26
41 39 39 40 39 38 36 34 35 36 36 35 35 34 33 33 33 33 31 30 29 29 30 31 30 29 29 29 30 30 31 32 30 28 29 30 30 29 29 30 29 29 30 31 29 28 28 28 28 28 28 28 27 27 26 26 27 28 27 27 27 27 27 26 26 26 26 26 26 27 27 26 26 27 25 24 24 24 25 25 24 26 29 30 28
40 39 40 40 39 38 36 35 35 37 37 37 37 36 36 36 36 35 33 32 31 31 32 32 32 32 32 31 31 32 31 32 32 33 33 33 34 33 31 31 31 31 32 32 31 31 30 30 30 30 30 30 30 30 28 28 29 30 29 28 28 28 28 28 28 28 28 27 27 28 29 28 28 29 28 27 27 26 27 27 26 28 31 31 30
42 39 38 38 38 39 40 40 38 38 39 39 39 38 38 39 40 38 36 35 34 33 33 34 35 35 35 34 35 36 36 35 35 37 37 37 37 36 35 33 33 33 32 31 32 32 32 32 33 33 32 32 32 32 31 31 32 32 31 30 29 30 30 29 29 30 29 28 29 30 31 31 31 31 30 30 29 29 30 29 28 30 32 32 31
39 38 37 36 36 40 44 44 41 40 40 40 40 40 40 41 40 39 39 37 36 35 36 36 37 38 38 38 39 39 40 40 39 38 38 38 39 39 38 37 37 36 33 32 34 34 33 34 34 34 35 34 33 33 33 34 34 33 33 32 30 31 31 31 32 32 31 29 29 30 32 33 32 32 32 32 31 30 31 31 31 32 34 35 33
22 27 28 27 27 31 37 40 41 42 43 43 41 39 41 43 41 40 41 40 39 39 39 39 39 41 42 43 43 43 41 42 42 40 40 41 42 42 41 40 40 39 36 35 37 37 36 36 36 36 37 37 34 33 35 36 36 35 34 32 30 30 31 33 34 33 32 32 32 31 32 33 33 33 33 33 33 33 33 34 34 34 36 37 36
16 16 17 17 17 18 20 26 32 37 43 47 47 43 41 43 43 42 42 42 41 40 41 42 43 44 45 47 48 47 45 44 45 44 44 45 46 45 44 43 44 43 40 39 39 39 38 39 38 38 38 38 36 35 36 38 38 38 36 33 31 30 30 33 36 34 32 33 34 34 34 34 35 35 35 34 35 35 35 36 37 37 38 39 38
20 19 19 19 18 16 14 16 19 22 28 37 44 45 44 45 46 44 42 42 44 46 46 46 46 47 48 50 51 49 48 47 48 49 48 48 48 47 45 45 45 45 42 40 40 42 42 41 41 40 40 40 39 37 38 38 38 37 36 34 32 31 32 34 36 35 35 35 34 34 36 36 36 37 38 38 38 38 38 39 40 39 39 40 39
22 21 21 21 20 20 20 20 19 18 18 21 28 35 37 38 40 42 40 34 34 40 46 49 51 52 51 51 53 52 49 48 49 52 54 52 50 48 46 46 45 44 43 41 40 42 43 42 42 42 41 42 42 41 41 40 39 38 38 36 33 32 34 35 35 37 39 38 35 36 38 37 36 38 40 40 40 40 42 43 42 40 39 40 40
21 22 22 21 21 23 24 24 23 23 22 20 20 23 25 25 25 29 32 25 17 20 27 34 42 48 49 48 50 52 53 52 51 54 56 55 53 51 48 46 45 44 45 44 42 41 42 42 42 42 42 43 44 44 43 42 40 39 39 39 37 36 37 37 36 37 39 39 38 39 39 38 39 41 42 42 42 43 44 44 44 42 40 41 41
21 23 23 23 23 24 24 25 25 25 25 25 24 23 24 25 22 23 27 25 20 19 20 19 21 28 34 37 40 43 46 47 48 52 56 56 55 54 50 46 45 46 46 46 45 43 43 43 43 42 42 43 44 44 43 42 41 39 39 40 39 39 39 38 38 38 39 39 40 40 40 39 41 43 45 46 46 44 42 43 44 41 40 42 43
20 22 24 25 25 24 23 23 24 24 24 25 26 27 27 27 28 27 27 28 27 25 24 22 19 20 24 26 29 33 36 37 40 45 50 53 53 54 52 49 46 46 46 46 45 44 43 44 43 42 42 43 44 44 44 43 43 41 40 40 39 39 39 38 39 40 40 39 39 41 41 41 42 44 45 47 47 45 44 47 48 45 42 43 45
20 21 23 24 25 25 24 23 23 24 24 24 25 26 27 28 29 31 30 29 28 27 26 27 26 25 25 24 25 27 31 36 37 38 41 45 48 51 53 49 46 46 47 47 46 45 44 45 45 43 43 43 44 45 44 43 42 41 40 41 41 41 41 40 40 42 42 41 40 42 43 41 40 41 42 42 42 42 42 45 46 43 42 44 44
21 21 22 23 24 25 25 25 25 25 25 25 24 25 25 26 27 29 29 28 28 27 27 27 26 26 27 26 25 24 24 30 35 36 36 39 41 43 45 44 43 44 47 47 47 47 47 48 48 46 45 44 44 45 46 45 43 41 41 42 43 43 43 42 42 43 44 43 42 43 44 41 39 40 40 39 38 36 35 39 43 43 42 43 42
23 23 24 24 25 25 26 26 27 26 26 26 26 26 25 25 25 26 27 27 26 26 25 25 25 25 26 26 26 24 22 24 29 33 34 35 36 37 39 40 40 42 45 47 48 48 48 49 49 49 48 46 45 46 47 47 46 45 45 45 46 46 45 45 45 45 45 45 44 43 41 39 38 38 37 36 36 35 34 38 43 43 42 43 42
26 26 26 26 27 27 27 27 28 28 28 27 27 27 27 26 25 25 26 27 26 25 25 25 25 25 24 23 23 22 21 21 24 27 28 29 31 32 33 36 37 39 40 42 44 46 48 48 49 50 50 48 47 47 48 48 48 48 48 48 48 48 46 45 44 44 43 43 43 41 39 38 38 36 34 34 36 40 41 41 41 40 40 42 42
27 28 27 28 28 28 29 29 29 29 29 29 29 29 28 28 27 27 27 27 27 26 26 26 25 24 24 23 22 22 21 21 23 25 25 26 26 26 26 26 27 28 28 29 33 38 42 44 45 47 49 49 49 49 50 50 51 50 49 49 48 47 45 43 42 41 41 40 40 39 38 38 37 35 34 33 35 39 43 43 39 38 38 38 36
28 28 28 28 29 29 29 30 30 30 30 30 30 30 30 29 29 28 28 28 28 27 27 27 26 25 25 25 25 25 25 25 26 28 29 30 29 28 27 26 25 25 25 25 27 30 31 33 34 37 40 43 45 47 49 49 50 50 49 48 46 44 42 41 40 39 38 38 37 36 35 35 34 33 34 36 37 39 41 40 37 36 35 32 28
26 27 27 27 28 28 29 29 30 30 30 31 31 31 30 30 31 30 30 30 30 30 29 29 28 28 28 28 28 28 29 29 30 31 33 34 35 35 35 35 35 34 33 32 32 31 30 30 31 32 35 37 40 42 45 46 46 46 46 45 43 41 39 39 39 38 37 36 35 34 34 34 33 33 35 39 43 43 43 41 40 39 37 34 33
25 26 26 26 26 27 28 28 29 30 30 30 31 31 31 31 31 32 32 32 31 32 32 31 31 30 30 30 31 31 32 32 33 34 35 36 38 39 40 41 41 41 40 39 38 37 36 36 35 36 36 37 38 39 41 42 42 42 42 41 40 38 38 37 37 37 37 36 35 34 33 33 34 36 39 44 47 48 48 48 48 46 44 42 42
24 24 25 25 26 26 26 27 28 29 30 30 31 31 32 32 32 33 33 34 34 34 34 34 34 34 34 33 33 34 34 35 36 37 37 38 39 39 41 41 41 41 41 40 40 40 39 39 38 39 39 40 40 40 40 40 40 40 40 39 39 38 39 38 38 38 38 37 36 35 33 32 35 39 44 47 49 50 50 50 49 49 48 47 46
23 23 24 24 25 26 26 27 27 28 29 30 31 32 32 32 33 34 34 35 36 36 36 36 36 37 37 37 37 37 37 37 38 39 39 40 40 40 41 41 42 42 42 41 41 40 40 40 40 41 41 41 42 42 42 42 42 42 42 42 41 41 41 41 40 40 39 38 38 37 36 35 38 42 46 48 48 48 49 49 50 51 51 51 49
23 23 23 24 24 25 26 26 27 28 29 30 31 32 33 33 34 34 35 36 36 37 38 38 39 39 39 39 40 40 40 40 40 41 41 42 43 43 43 43 43 43 43 43 42 42 42 42 42 42 43 43 43 44 44 44 45 45 45 45 45 45 44 43 43 43 43 43 42 41 41 40 41 44 48 50 51 52 53 53 53 53 54 53 51
23 23 24 24 25 26 26 27 28 29 29 30 30 31 32 33 34 35 36 37 37 38 38 39 40 41 41 41 42 42 43 43 43 43 43 44 45 45 46 46 46 46 46 46 45 45 44 44 44 44 45 45 45 45 46 46 47 47 48 48 49 49 48 48 47 47 47 47 46 46 46 45 44 45 48 51 52 53 53 53 53 54 55 55 54
22 22 22 23 23 24 25 25 26 27 27 28 29 29 30 31 32 33 34 35 37 38 39 40 41 42 42 43 44 44 44 45 45 45 45 45 46 46 47 47 48 48 49 49 49 49 48 48 47 47 47 47 47 47 47 48 48 49 49 50 51 51 51 51 51 51 50 50 50 49 49 49 49 50 51 53 54 55 56 56 57 58 58 58 58
18 19 19 20 20 21 22 23 24 25 26 27 28 29 30 30 31 32 33 34 35 36 37 38 40 41 42 43 44 45 46 46 47 47 47 48 48 48 48 48 49 49 50 50 50 51 51 51 51 51 51 50 50 50 50 50 50 50 51 51 52 53 53 53 54 54 54 53 53 53 52 53 53 53 54 55 57 57 58 58 59 60 61 61 61
17 18 19 21 22 23 24 25 26 27 28 29 31 32 33 34 35 35 36 37 37 38 38 39 39 40 41 42 43 45 46 47 47 48 49 49 50 50 50 50 50 50 51 51 51 51 52 52 53 53 53 53 53 53 53 53 53 53 53 53 54 54 55 55 55 56 56 56 56 56 56 56 56 56 56 57 57 58 58 59 59 60 61 61 62
19 20 21 23 24 25 27 28 29 30 31 33 34 35 36 37 38 39 40 41 41 41 42 42 42 42 42 42 44 45 46 47 47 48 49 50 51 51 52 52 52 52 52 52 53 53 53 53 53 54 54 54 53 53 53 54 54 54 55 55 56 56 56 57 57 57 57 57 58 58 58 58 58 58 58 59 59 59 60 60 60 60 60 60 59
21 22 23 24 26 27 29 31 32 33 34 36 37 38 38 39 41 42 43 44 44 45 45 46 46 44 43 44 45 46 47 48 48 48 49 50 50 51 52 53 53 54 54 54 54 54 54 54 54 54 54 55 55 54 54 54 54 54 55 55 55 56 57 58 58 58 58 58 58 59 59 60 60 60 60 60 60 60 60 60 60 59 59 58 58
24 25 25 27 29 30 32 33 34 36 37 37 38 39 40 40 41 42 43 44 44 45 46 47 47 46 45 45 46 47 48 49 48 49 50 51 51 51 52 52 52 53 54 54 54 55 55 55 55 55 55 55 55 56 56 56 55 55 55 54 54 55 55 55 56 57 58 59 59 59 59 59 60 60 60 60 60 60 60 60 60 59 59 59 60
26 27 29 30 32 34 35 36 36 37 37 38 38 39 41 42 43 43 43 44 45 45 46 48 48 47 47 47 47 47 49 49 49 49 50 51 52 53 54 54 53 53 54 54 54 55 55 55 55 55 56 56 56 56 56 56 57 57 56 56 55 55 55 54 54 54 55 56 56 57 58 58 59 59 59 59 59 59 59 60 61 60 60 60 60
29 30 32 34 35 36 37 37 38 38 38 39 39 40 42 43 44 45 46 46 46 47 48 48 49 49 49 49 49 49 50 50 50 50 50 51 51 53 54 55 54 55 55 55 55 55 56 55 55 55 55 55 55 56 56 56 56 56 56 57 57 57 56 55 55 54 54 54 54 54 54 55 56 56 56 57 57 58 58 58 58 59 59 59 59
31 33 35 36 37 38 38 39 39 40 41 41 42 43 44 45 46 47 47 48 48 49 50 50 50 50 50 50 51 51 51 52 52 51 51 51 51 52 54 54 54 54 56 56 56 56 57 57 56 55 55 54 54 55 55 55 55 55 55 56 57 57 56 56 56 56 56 55 54 54 54 54 54 54 54 55 55 56 56 55 56 56 56 56 57
34 35 37 38 39 40 40 40 41 42 43 44 45 46 47 47 47 48 48 49 49 49 50 51 51 51 51 51 51 52 52 53 53 52 52 52 52 53 54 54 54 54 55 56 56 57 58 58 58 58 57 57 56 56 55 55 55 55 55 55 55 55 56 57 57 57 57 56 56 56 56 55 54 54 54 54 54 54 54 54 54 55 55 55 55
36 38 39 40 41 41 42 43 44 45 46 47 48 49 49 49 49 49 49 49 49 49 49 50 51 51 51 51 51 52 52 53 53 52 52 52 53 54 54 55 55 55 56 57 57 57 57 58 59 59 59 58 58 58 57 56 56 55 55 55 55 55 55 55 55 56 56 56 57 57 57 57 56 56 55 55 55 55 55 54 54 54 54 54 55
39 40 41 42 42 43 43 45 46 47 48 49 49 50 50 50 50 50 49 49 49 49 49 50 51 51 51 52 52 53 53 54 54 53 52 52 54 55 55 55 56 57 57 57 57 58 58 58 59 59 59 59 59 59 59 58 57 56 55 55 55 55 54 54 54 54 55 55 56 56 56 56 56 56 56 56 55 55 55 55 54 54 54 54 54
41 42 42 43 43 44 46 47 48 49 50 50 50 50 50 50 49 49 49 49 49 49 50 51 51 52 52 52 53 53 53 53 54 54 54 53 54 55 55 56 58 59 60 59 58 58 58 58 59 59 59 59 59 59 59 59 58 57 56 56 56 55 54 54 54 54 54 54 55 55 55 55 55 54 54 54 54 54 54 54 53 53 53 52 52
42 42 43 44 45 46 48 49 50 50 50 50 50 50 49 49 49 49 48 48 48 49 49 50 49 49 50 51 51 51 50 50 50 51 51 51 51 52 53 55 56 58 60 61 61 60 59 59 59 59 59 59 59 59 58 58 58 57 56 56 56 55 54 54 53 53 53 53 53 53 53 53 53 52 52 52 51 51 51 51 51 50 50 50 49
42 43 44 45 47 48 49 50 50 50 50 49 49 48 48 48 48 48 48 48 48 48 48 47 46 46 47 47 47 46 46 47 47 47 47 47 47 48 49 51 53 54 56 58 59 60 60 60 60 59 59 58 58 58 57 57 57 56 56 56 56 55 54 54 53 52 52 52 52 52 52 51 51 51 50 50 49 49 48 48 48 48 48 48 47
43 44 46 47 48 49 50 50 49 49 48 48 47 47 47 47 47 47 47 47 47 47 47 46 44 44 43 43 43 45 46 47 48 48 48 48 48 48 48 49 50 51 52 54 55 56 57 58 59 59 58 57 57 57 56 56 55 55 55 54 54 54 53 53 52 52 51 50 50 50 50 50 49 49 48 47 47 46 46 46 46 46 46 46 46
Wind_Direction
229 230 231 233 233 232 231 230 230 231 233 235 236 237 237 236 236 235 234 234 234 232 231 231 232 231 230 229 226 224 224 225 228 232 235 238 242 245 245 243 240 244 247 247 250 253 255 259 262 265 269 272 275 277 279 279 277 274 271 271 275 274 270 273 281 287 289 287 288 288 291 294 296 302 308 312 315 315 315 320 322 324 327 329 334
232 231 230 233 235 234 232 232 232 231 231 234 236 239 240 241 241 240 239 238 238 237 236 235 234 234 234 233 231 230 230 231 232 234 236 238 240 243 246 246 246 248 252 255 257 259 259 260 260 260 263 266 269 273 276 275 272 273 273 273 276 275 273 275 275 276 280 283 286 287 288 290 294 301 310 314 313 313 315 317 319 321 322 326 331
237 234 229 231 235 234 232 232 235 235 234 234 235 238 240 242 243 245 244 243 242 241 241 240 239 237 236 236 235 233 233 235 237 238 240 240 240 243 245 246 247 247 249 255 258 260 260 259 258 258 260 261 266 270 273 274 273 273 275 275 274 270 266 267 272 274 277 281 285 286 289 294 300 306 312 312 311 314 317 319 319 320 321 323 326
239 240 235 233 234 235 234 233 235 237 238 239 239 239 240 241 243 245 247 247 246 247 246 245 245 243 240 238 238 237 236 237 238 240 241 242 242 243 244 245 247 248 248 250 253 255 257 258 258 260 261 262 266 271 273 274 275 275 280 281 280 279 277 277 280 279 278 282 287 291 297 303 306 310 314 313 313 317 319 318 318 318 319 321 323
240 242 240 239 237 236 237 236 237 238 239 241 243 244 244 244 243 244 247 249 249 250 250 250 249 248 247 245 243 241 239 238 238 238 240 242 243 244 245 246 247 248 248 248 250 251 252 255 257 259 262 263 266 269 270 272 276 279 282 283 282 284 286 287 284 281 283 288 291 295 299 300 301 305 310 310 310 313 316 314 314 315 317 318 319
243 243 244 244 241 240 239 239 241 241 241 241 243 246 248 248 246 245 246 249 250 251 252 252 253 253 252 251 249 248 245 242 241 240 240 241 242 244 246 248 249 251 252 252 253 253 254 255 257 260 263 263 262 264 267 271 274 276 280 281 280 277 277 281 281 283 290 293 292 291 290 290 291 296 300 300 299 302 307 309 309 311 314 315 316
244 246 249 249 247 244 241 240 240 241 243 243 242 245 248 249 249 247 247 248 250 252 253 252 253 254 254 252 251 251 250 248 245 244 243 243 243 244 245 248 251 253 254 255 256 257 258 259 260 261 263 263 263 263 265 268 269 269 270 270 269 264 260 265 270 273 278 282 282 283 285 284 284 286 292 294 294 294 296 300 304 308 311 313 313
239 241 247 250 250 247 244 243 242 241 243 244 244 245 247 249 251 250 249 248 247 248 250 251 251 252 254 253 253 253 252 250 248 245 245 245 245 246 246 247 249 251 253 255 256 258 259 261 262 262 262 264 265 266 265 267 267 265 262 261 260 260 261 262 265 268 269 269 270 275 281 282 281 284 288 290 290 290 289 291 296 304 309 309 310
238 237 239 242 245 246 246 245 244 244 244 243 245 246 247 248 249 251 250 249 246 245 245 248 250 250 251 253 253 252 251 250 249 246 245 245 245 245 245 245 246 249 252 253 253 254 255 256 259 261 263 264 265 266 265 264 263 261 259 259 259 261 265 268 268 267 268 270 273 276 278 278 279 282 284 285 288 290 290 289 289 298 304 305 308
238 237 237 238 238 240 243 242 241 244 245 244 244 245 247 247 247 247 249 247 246 244 243 247 251 250 250 251 251 251 251 250 249 249 248 248 248 248 248 247 246 247 249 250 250 250 250 252 255 257 259 260 259 261 262 261 262 262 261 262 262 263 264 267 268 267 267 271 274 274 274 274 277 280 281 284 287 288 289 289 289 295 301 303 305
237 235 235 237 238 236 237 238 239 243 247 247 245 243 244 244 244 245 246 245 244 242 243 248 252 253 251 252 252 252 252 251 248 249 251 252 253 253 253 253 250 249 249 249 249 249 249 251 254 254 255 255 255 257 261 263 264 265 266 266 267 266 265 265 267 268 269 271 272 272 273 274 275 277 278 281 282 281 280 284 292 299 302 302 302
234 235 235 236 238 238 237 238 239 242 245 246 246 245 244 243 243 243 243 244 245 244 245 248 251 253 254 254 253 251 252 252 251 251 253 255 255 255 256 256 255 255 254 252 250 250 250 251 252 252 254 255 255 258 264 266 265 266 267 268 268 269 268 267 266 268 269 272 274 275 276 276 276 276 278 280 280 278 276 282 292 299 299 297 298
231 233 236 237 237 238 239 240 240 241 242 244 245 248 247 244 244 245 245 245 245 246 248 250 251 252 252 254 254 253 252 253 253 251 252 254 254 254 253 254 255 255 256 255 253 252 252 252 252 253 256 257 257 259 263 264 264 266 268 269 269 269 268 268 268 267 268 270 273 275 276 276 275 277 280 283 283 281 279 282 288 291 292 293 295
232 232 234 236 237 237 238 241 244 243 243 244 245 247 248 247 246 247 247 247 247 248 250 252 253 252 251 252 252 251 251 253 255 253 251 251 252 252 252 253 253 252 254 256 256 254 254 255 254 254 256 259 260 261 261 260 260 263 267 269 269 269 269 269 268 267 267 267 268 270 272 273 274 278 282 285 286 286 285 286 287 288 290 293 296
235 237 237 237 238 238 239 244 249 248 245 247 248 248 248 248 247 247 247 247 247 249 250 252 253 254 255 255 252 250 250 253 258 258 254 252 252 253 252 253 251 251 252 255 257 256 255 256 257 257 257 260 263 263 261 258 257 260 263 265 267 270 271 271 270 269 269 270 268 267 268 271 273 276 280 283 284 285 287 287 288 289 291 294 297
232 235 237 239 242 243 245 248 250 247 244 247 251 251 248 247 247 249 249 247 246 247 248 250 253 255 257 257 256 254 253 255 258 257 256 256 257 255 254 254 253 252 251 252 256 257 254 253 256 258 259 262 265 265 263 262 261 261 262 263 265 268 270 271 273 272 271 271 270 267 267 269 271 274 278 281 282 282 284 285 287 289 290 291 294
235 231 232 236 241 246 248 249 249 246 244 245 249 251 248 246 247 250 250 249 248 248 249 250 251 254 256 256 257 256 256 256 256 255 256 257 257 256 256 255 255 254 252 251 254 256 254 252 252 254 256 260 263 264 263 263 263 262 262 265 268 271 271 270 270 270 272 274 271 268 268 269 271 274 276 278 279 279 279 281 283 284 285 287 289
265 255 249 248 246 243 245 246 245 244 243 244 246 249 248 246 247 249 250 251 251 251 252 252 253 254 256 257 257 257 257 257 257 256 257 257 254 253 255 256 256 255 255 255 255 254 253 253 252 252 253 256 259 260 261 261 261 261 262 264 268 271 271 268 266 267 270 272 270 269 269 269 271 274 275 277 279 280 280 281 281 282 283 284 286
273 277 280 278 270 264 262 258 251 247 245 243 244 247 248 249 249 249 251 254 256 255 254 254 255 256 256 256 257 257 258 258 258 258 258 258 254 251 251 253 256 257 256 257 258 257 255 254 254 253 253 254 254 255 257 260 261 260 261 264 267 269 268 267 267 267 267 267 269 270 269 269 271 273 275 277 279 280 280 281 282 283 285 284 283
271 276 284 287 283 279 277 277 277 275 267 253 244 242 246 253 255 252 251 255 261 260 256 254 254 255 256 256 257 259 259 257 255 256 257 257 256 254 251 251 253 256 255 255 257 258 258 257 255 255 255 255 254 253 255 259 260 260 261 264 267 268 267 265 265 265 266 267 269 269 270 271 272 273 275 276 277 278 279 279 279 281 283 284 282
272 273 278 281 283 285 286 285 287 288 287 280 264 251 250 256 252 239 233 236 256 271 265 258 253 253 256 258 257 257 257 256 255 255 256 256 257 258 257 253 252 253 254 254 256 258 258 257 256 255 255 255 255 254 254 256 258 259 262 263 263 262 262 263 262 262 264 266 268 269 271 273 273 274 275 275 276 278 279 279 278 277 277 279 280
275 274 275 276 279 285 290 291 293 295 295 294 288 277 269 265 255 235 229 241 268 290 291 283 268 261 262 262 257 253 253 256 256 254 253 255 257 258 259 256 252 252 253 255 258 258 258 257 256 255 254 253 253 255 256 257 259 259 260 262 262 261 261 262 263 261 262 267 270 271 273 275 276 276 276 275 275 275 275 276 277 277 275 276 277
271 272 274 276 278 281 284 287 290 293 295 296 295 292 288 283 277 272 269 273 285 294 294 293 289 281 279 278 271 260 253 254 257 255 252 254 256 257 259 259 255 252 252 254 258 259 260 259 258 256 254 251 252 254 256 258 260 261 262 264 265 265 263 263 264 263 264 268 272 274 276 279 280 277 275 273 273 273 274 276 277 277 275 276 278
263 266 269 271 274 276 278 279 280 283 285 288 291 293 294 293 291 290 290 290 292 295 296 295 292 287 286 289 290 280 265 257 258 259 256 255 257 258 258 258 257 254 253 254 257 259 260 260 259 256 255 253 252 252 254 257 260 262 264 266 266 266 265 265 265 266 267 269 272 275 278 280 280 277 274 274 277 278 277 275 274 275 275 277 279
254 257 261 264 266 269 272 274 274 275 277 279 281 284 287 291 291 292 293 293 293 294 295 295 292 290 287 287 292 296 285 265 257 257 257 257 258 258 256 256 258 257 255 254 255 256 258 259 258 257 256 256 255 254 255 257 260 262 264 265 265 265 265 265 265 266 268 269 271 273 276 278 279 277 277 281 283 281 273 267 270 275 277 278 278
247 249 253 257 259 261 264 267 269 271 271 272 274 275 277 279 282 284 285 286 288 289 288 287 287 288 288 287 288 294 295 281 264 257 255 256 256 256 254 255 257 258 257 256 256 257 258 258 257 256 257 258 258 257 257 257 259 262 265 267 267 267 267 267 267 267 268 270 271 272 274 275 275 276 278 279 279 276 268 263 266 272 277 280 281
245 247 249 252 255 257 259 261 263 266 267 268 268 270 270 270 271 272 275 276 278 278 278 279 281 282 283 285 286 285 288 287 275 261 255 254 254 253 253 254 256 258 261 261 260 259 258 257 255 253 255 257 257 257 257 258 261 264 267 270 270 271 271 270 269 268 269 269 270 270 269 268 269 274 277 275 274 273 266 257 259 269 277 282 282
246 247 248 250 253 256 258 259 260 262 264 265 266 267 268 268 267 266 267 269 270 271 271 272 274 275 274 274 275 273 271 273 271 264 260 259 257 254 254 255 257 260 263 264 262 259 258 257 256 255 255 257 257 257 258 260 263 265 267 267 267 267 267 267 266 267 266 266 265 265 264 264 266 271 274 270 267 265 258 253 260 274 278 277 274
251 251 251 252 254 256 258 260 260 261 263 265 266 267 267 268 269 268 267 267 268 268 269 268 267 267 267 266 265 264 262 261 261 261 263 264 264 262 262 265 268 270 270 270 269 266 263 261 260 258 257 257 257 258 258 260 261 262 261 260 258 259 260 261 261 261 262 262 261 261 261 263 265 268 272 266 258 256 255 255 262 270 269 266 267
255 256 256 256 257 258 259 261 262 263 264 265 267 268 269 269 269 270 270 270 269 269 269 269 266 264 263 262 260 259 259 259 259 259 260 262 263 265 266 268 270 272 273 273 274 273 270 268 266 263 261 260 259 259 257 256 256 256 255 254 253 254 257 259 260 261 261 262 263 262 262 264 265 266 266 259 254 256 262 263 264 266 265 264 269
259 260 261 261 262 262 262 263 265 266 267 268 268 269 271 271 271 271 272 272 272 271 271 271 270 267 264 262 260 258 258 258 258 259 259 260 261 263 265 267 269 271 272 272 272 272 271 270 270 269 267 266 265 265 262 258 255 254 253 254 254 256 259 261 262 264 264 265 266 266 267 268 268 265 261 258 258 261 264 264 265 266 265 266 274
267 267 268 269 270 270 270 270 270 270 271 271 272 272 273 273 273 273 273 273 273 274 273 272 272 271 270 267 264 262 260 259 259 259 260 261 262 263 264 266 268 269 270 270 270 270 270 269 268 268 267 267 267 268 267 264 261 259 258 258 258 260 262 263 264 265 266 266 267 267 266 267 266 261 257 257 259 259 260 263 267 268 266 271 281
275 275 275 276 276 277 277 277 277 276 275 275 275 275 275 275 275 275 275 274 274 275 275 275 274 274 273 272 271 269 266 264 262 262 262 262 263 263 264 265 266 267 268 268 268 268 267 267 266 265 265 265 265 266 267 266 265 264 262 261 261 261 262 264 265 266 266 266 266 266 264 262 260 257 257 258 260 261 263 268 273 274 273 277 283
276 278 280 280 280 281 282 282 282 281 280 279 279 278 277 277 277 277 277 276 276 276 277 277 276 276 275 275 274 273 272 270 268 266 265 264 264 264 264 265 265 266 266 266 266 266 266 265 265 264 264 263 263 263 264 264 264 264 264 263 263 262 262 263 264 265 265 265 266 267 266 263 261 261 263 266 267 267 269 271 273 273 274 276 280
279 281 282 284 285 285 286 285 285 285 285 284 283 282 281 280 279 278 278 277 277 277 277 278 277 277 277 277 276 275 275 274 273 271 270 268 267 267 266 266 266 267 267 268 268 268 267 266 265 264 264 263 263 262 262 262 262 262 262 262 263 262 263 263 264 264 265 266 266 266 266 265 263 262 263 266 268 270 272 273 274 275 276 277 279
280 282 283 284 285 286 287 287 287 287 287 288 287 286 285 283 282 281 280 279 277 277 277 277 277 277 277 278 278 277 276 275 274 274 273 272 271 270 269 269 268 269 269 269 270 270 270 269 268 267 265 264 264 263 263 262 262 261 261 261 262 262 262 263 264 264 265 266 267 267 267 267 266 264 263 264 266 268 270 272 273 274 276 277 277
278 281 284 285 286 287 288 289 290 290 290 290 290 289 288 287 286 285 283 282 281 280 278 277 277 277 277 277 278 277 277 276 275 275 275 274 273 272 271 270 270 270 270 270 270 271 271 271 271 271 270 269 267 266 265 264 264 263 263 263 263 263 263 263 264 265 266 267 268 268 268 268 267 267 266 266 266 267 268 269 269 271 272 273 274
277 281 284 285 287 288 288 288 288 289 289 288 288 289 289 288 288 287 286 285 283 282 281 280 279 278 278 278 278 277 277 276 276 276 275 275 274 274 273 273 272 271 270 270 270 270 270 271 271 271 272 272 271 271 270 268 267 267 266 266 266 265 265 265 265 265 266 267 267 268 268 268 268 268 268 268 268 268 269 269 269 269 270 270 271
281 284 285 287 287 288 288 289 288 288 288 288 288 287 287 288 288 288 287 287 286 285 283 282 280 279 279 278 278 277 276 276 276 276 275 275 274 274 274 274 273 273 272 271 271 271 271 270 270 270 271 271 272 272 272 272 271 270 269 268 268 268 268 268 268 268 268 268 269 269 269 269 269 269 270 270 269 270 270 270 270 270 271 272 273
285 286 287 288 289 289 289 289 289 289 288 288 287 287 287 287 287 287 287 287 287 287 286 284 282 281 280 279 278 278 276 275 274 275 275 275 274 274 274 273 273 273 273 272 272 272 271 271 271 271 271 271 271 271 272 272 272 272 272 271 270 270 269 269 269 269 269 270 270 271 271 271 271 271 271 272 272 272 272 272 272 272 272 272 272
286 288 288 289 291 291 291 290 290 290 290 289 289 289 289 288 288 288 288 287 287 288 287 286 286 285 284 281 280 279 277 275 274 273 273 273 273 273 273 273 273 273 273 273 273 272 272 272 272 272 272 271 271 271 271 271 271 272 272 272 272 272 271 271 271 271 271 271 271 271 271 272 272 272 273 273 273 273 274 274 274 273 272 271 271
288 290 291 292 293 293 293 293 292 292 291 291 291 291 291 291 290 290 289 289 289 288 287 287 287 288 287 284 282 280 278 277 275 273 272 272 271 271 271 271 271 272 272 272 272 272 272 271 271 271 271 271 271 271 271 271 272 272 272 272 272 272 272 272 272 272 272 272 272 272 272 272 273 273 273 274 274 274 274 274 274 274 274 273 273
290 291 292 294 295 295 295 295 294 293 293 292 291 291 291 291 291 291 291 290 290 289 287 287 287 287 286 285 284 281 279 278 276 274 273 272 272 271 270 270 270 271 271 271 271 272 272 272 271 271 271 270 270 271 271 271 271 271 271 272 272 273 273 273 273 272 272 272 272 272 273 273 273 273 274 274 274 274 274 274 275 275 275 275 275
289 292 294 295 296 296 295 295 295 294 294 293 293 292 291 291 290 291 291 290 290 288 287 287 287 286 285 284 283 281 280 279 277 276 275 274 273 272 272 271 270 271 271 270 270 270 271 271 271 271 271 271 270 270 270 270 270 270 270 270 271 271 272 273 273 273 273 274 273 273 273 273 273 273 273 274 274 274 274 275 275 275 275 276 276
290 293 295 296 296 295 295 295 295 295 295 295 294 293 293 292 291 291 290 290 289 288 287 287 286 286 284 283 282 281 280 280 279 277 276 275 274 273 273 273 272 271 271 271 271 271 271 271 270 270 271 271 271 271 270 270 270 270 270 270 270 270 271 271 272 272 273 274 274 274 274 274 274 275 275 275 275 275 275 275 276 276 277 277 278
291 293 294 295 295 295 295 295 295 296 295 295 294 294 293 293 292 291 290 290 289 288 287 287 286 285 284 284 283 282 281 280 279 278 277 277 276 275 274 274 273 272 272 272 271 271 271 271 271 271 270 271 271 271 271 271 271 272 272 272 271 271 271 271 271 271 272 272 273 273 274 274 275 275 276 276 277 277 278 278 278 278 279 279 279
291 292 293 293 293 294 294 295 296 296 296 295 294 294 293 293 292 292 291 290 290 289 288 287 286 285 284 284 282 282 281 281 280 279 278 277 277 276 275 275 275 274 273 272 272 272 271 271 271 271 271 271 271 271 271 272 272 273 273 273 273 272 272 272 272 271 271 271 272 272 272 273 273 274 275 275 276 277 277 278 278 279 279 279 280
290 291 292 292 293 293 294 295 295 295 295 294 293 293 293 293 293 292 291 291 290 289 288 287 286 286 284 283 282 281 280 279 279 279 278 277 276 276 276 276 275 274 273 272 272 272 272 272 272 271 271 271 271 271 271 271 272 272 273 274 274 273 273 273 272 272 271 271 271 271 272 272 272 273 273 274 274 275 276 276 277 277 278 279 279
290 291 292 293 294 294 295 295 295 295 294 294 293 293 293 293 292 292 291 290 290 289 288 287 286 285 283 282 282 281 279 278 278 278 279 278 278 277 277 276 276 275 275 274 272 271 271 272 272 273 272 271 271 271 271 272 272 272 272 273 273 273 273 273 272 271 271 271 271 271 271 272 272 272 272 273 273 274 274 275 275 276 277 278 278
292 292 293 294 295 295 295 295 295 294 294 294 294 293 293 293 292 292 291 291 290 289 288 287 286 284 283 282 281 280 279 279 280 280 280 280 280 279 279 278 277 277 277 276 275 273 272 272 272 273 273 273 273 272 272 272 272 271 271 271 272 272 272 272 272 272 271 270 270 270 270 271 271 271 272 272 272 273 273 274 274 275 276 276 277
292 293 294 294 295 295 295 295 295 294 295 295 294 294 294 293 293 292 291 291 290 289 288 287 284 282 281 281 279 279 280 281 281 281 281 281 280 280 280 279 279 278 277 277 276 275 274 273 272 273 273 274 274 273 273 273 272 271 271 271 271 271 271 271 271 271 271 270 270 269 269 269 270 270 271 271 272 272 272 272 273 274 274 275 276
Height
5909 5910 5912 5913 5914 5916 5918 5919 5920 5922 5922 5923 5924 5925 5926 5927 5927 5928 5928 5929 5930 5930 5931 5931 5932 5933 5933 5934 5934 5934 5935 5935 5935 5936 5936 5936 5937 5937 5938 5939 5939 5939 5940 5940 5941 5941 5941 5941 5941 5941 5940 5940 5940 5940 5940 5940 5941 5941 5941 5941 5940 5940 5940 5940 5940 5939 5939 5939 5939 5939 5938 5938 5937 5936 5936 5935 5934 5933 5932 5931 5931 5930 5929 5928 5927
5907 5908 5910 5911 5913 5915 5916 5917 5918 5919 5921 5922 5922 5923 5924 5925 5926 5926 5927 5928 5928 5929 5929 5930 5931 5931 5932 5933 5933 5934 5934 5934 5934 5935 5935 5935 5936 5936 5937 5937 5938 5938 5938 5939 5940 5940 5940 5940 5940 5940 5940 5939 5939 5939 5939 5940 5940 5940 5940 5940 5940 5940 5939 5939 5939 5938 5938 5938 5938 5938 5938 5937 5937 5936 5934 5934 5934 5933 5932 5931 5930 5929 5928 5927 5927
5904 5907 5909 5910 5911 5913 5914 5915 5916 5917 5918 5919 5920 5921 5922 5923 5924 5925 5926 5926 5927 5927 5928 5929 5929 5930 5930 5931 5932 5932 5933 5933 5934 5934 5934 5934 5935 5935 5935 5936 5936 5937 5937 5937 5938 5938 5938 5939 5939 5939 5939 5939 5939 5939 5939 5939 5939 5939 5939 5939 5939 5939 5939 5939 5938 5938 5937 5937 5937 5937 5937 5936 5936 5935 5934 5933 5933 5932 5931 5930 5929 5928 5927 5926 5926
5903 5904 5906 5908 5909 5911 5912 5914 5915 5916 5916 5917 5918 5919 5920 5921 5922 5923 5924 5924 5925 5926 5927 5927 5928 5928 5929 5930 5930 5931 5931 5932 5932 5933 5933 5933 5934 5934 5934 5935 5935 5935 5935 5936 5937 5937 5937 5937 5938 5938 5938 5938 5938 5938 5938 5938 5938 5938 5939 5939 5939 5939 5939 5938 5938 5938 5937 5936 5936 5936 5935 5935 5935 5934 5933 5933 5932 5931 5930 5929 5928 5927 5926 5925 5924
5901 5903 5904 5905 5907 5908 5910 5911 5912 5913 5913 5915 5916 5917 5918 5919 5920 5921 5922 5923 5924 5924 5925 5926 5927 5927 5928 5928 5929 5929 5930 5930 5931 5931 5932 5932 5932 5933 5933 5934 5934 5934 5934 5935 5935 5936 5936 5936 5936 5937 5937 5937 5937 5937 5937 5937 5937 5937 5938 5938 5938 5938 5938 5938 5937 5937 5937 5936 5935 5935 5934 5934 5934 5934 5933 5932 5931 5929 5929 5928 5927 5926 5925 5924 5923
5899 5901 5901 5902 5904 5906 5907 5908 5909 5910 5911 5912 5914 5915 5916 5917 5918 5919 5920 5921 5922 5922 5923 5924 5925 5926 5927 5927 5928 5928 5929 5929 5930 5930 5930 5931 5931 5931 5932 5932 5933 5933 5934 5934 5935 5935 5935 5935 5935 5936 5936 5936 5936 5936 5936 5936 5936 5936 5936 5936 5937 5937 5936 5936 5936 5936 5936 5936 5936 5935 5933 5933 5933 5932 5931 5930 5929 5928 5927 5926 5925 5924 5923 5923 5922
5896 5899 5900 5900 5902 5904 5906 5906 5907 5908 5908 5909 5911 5912 5913 5914 5916 5917 5918 5918 5919 5920 5921 5922 5923 5924 5925 5925 5926 5927 5928 5928 5928 5929 5929 5929 5930 5930 5931 5931 5932 5932 5933 5933 5933 5934 5934 5934 5935 5935 5935 5935 5935 5935 5935 5935 5935 5935 5934 5934 5935 5934 5934 5933 5933 5934 5934 5934 5934 5933 5932 5932 5931 5930 5929 5928 5927 5926 5926 5925 5924 5923 5923 5922 5921
5892 5895 5897 5899 5900 5901 5903 5904 5905 5905 5906 5907 5908 5909 5910 5912 5913 5914 5915 5916 5916 5917 5918 5919 5921 5922 5922 5923 5924 5925 5926 5927 5927 5927 5927 5928 5928 5929 5929 5930 5930 5930 5931 5931 5932 5933 5933 5933 5934 5934 5934 5934 5933 5933 5933 5933 5933 5933 5932 5932 5932 5932 5932 5932 5932 5932 5931 5931 5931 5930 5930 5930 5930 5928 5927 5926 5925 5924 5923 5922 5922 5922 5922 5921 5920
5889 5890 5892 5894 5896 5898 5900 5902 5903 5904 5904 5905 5905 5906 5908 5909 5910 5911 5912 5913 5913 5914 5915 5916 5918 5919 5920 5921 5923 5923 5924 5925 5925 5925 5925 5925 5926 5927 5927 5928 5928 5928 5929 5929 5929 5930 5931 5931 5932 5932 5932 5932 5931 5931 5931 5931 5931 5931 5930 5931 5931 5930 5930 5930 5930 5930 5929 5929 5928 5928 5928 5928 5928 5926 5925 5924 5923 5923 5922 5921 5920 5920 5920 5919 5919
5885 5887 5888 5890 5891 5893 5896 5898 5901 5902 5902 5902 5903 5904 5905 5906 5906 5907 5908 5909 5910 5911 5912 5913 5914 5916 5917 5919 5920 5921 5921 5922 5923 5923 5923 5923 5924 5925 5925 5925 5925 5926 5926 5926 5927 5927 5928 5929 5929 5929 5929 5929 5928 5928 5928 5928 5928 5928 5929 5929 5928 5928 5928 5927 5927 5927 5927 5926 5925 5925 5925 5925 5925 5924 5923 5921 5921 5921 5921 5921 5920 5920 5918 5917 5917
5881 5883 5885 5886 5887 5888 5890 5893 5896 5898 5899 5899 5900 5901 5902 5902 5902 5903 5904 5905 5906 5907 5907 5909 5911 5912 5914 5915 5917 5918 5918 5918 5919 5920 5920 5921 5922 5922 5923 5923 5923 5923 5924 5924 5924 5925 5926 5926 5926 5926 5926 5925 5925 5925 5925 5925 5925 5925 5926 5926 5926 5926 5926 5925 5925 5924 5924 5924 5923 5922 5922 5922 5922 5921 5920 5919 5918 5918 5918 5918 5918 5917 5916 5915 5915
5878 5880 5881 5882 5883 5885 5887 5889 5892 5894 5895 5896 5897 5898 5899 5899 5899 5900 5901 5901 5902 5903 5904 5905 5907 5908 5910 5911 5913 5914 5914 5914 5916 5917 5917 5918 5919 5919 5920 5920 5920 5921 5921 5921 5922 5922 5923 5922 5922 5923 5922 5922 5922 5922 5923 5923 5923 5923 5923 5924 5924 5924 5923 5923 5922 5922 5922 5922 5921 5920 5919 5919 5919 5919 5918 5917 5916 5915 5915 5915 5915 5914 5914 5913 5912
5874 5876 5877 5877 5879 5882 5884 5886 5887 5888 5889 5891 5893 5895 5896 5896 5896 5897 5898 5898 5900 5901 5901 5902 5903 5904 5905 5906 5907 5909 5910 5911 5912 5913 5914 5914 5914 5915 5916 5916 5917 5919 5918 5918 5919 5919 5919 5919 5919 5919 5919 5919 5919 5919 5920 5920 5919 5919 5920 5920 5921 5921 5921 5921 5920 5920 5920 5920 5919 5918 5917 5917 5917 5916 5916 5915 5914 5913 5913 5913 5912 5912 5911 5910 5909
5870 5872 5873 5874 5876 5878 5880 5881 5882 5884 5885 5887 5889 5891 5892 5893 5893 5894 5895 5896 5897 5899 5899 5899 5900 5900 5900 5901 5901 5903 5905 5907 5907 5908 5910 5910 5910 5910 5911 5912 5913 5914 5914 5915 5916 5916 5916 5916 5916 5916 5915 5916 5916 5916 5916 5917 5916 5915 5916 5916 5917 5918 5918 5918 5918 5917 5917 5917 5917 5915 5914 5914 5914 5913 5913 5912 5911 5911 5911 5910 5909 5908 5907 5907 5906
5867 5868 5870 5871 5873 5874 5875 5876 5877 5879 5881 5882 5883 5885 5887 5888 5889 5889 5891 5892 5894 5895 5896 5896 5896 5896 5897 5897 5897 5897 5899 5901 5902 5903 5905 5906 5906 5906 5907 5908 5908 5908 5909 5911 5911 5911 5913 5913 5913 5913 5913 5912 5912 5912 5912 5913 5913 5913 5913 5913 5913 5914 5914 5914 5914 5914 5914 5914 5914 5913 5912 5911 5911 5910 5909 5909 5909 5908 5907 5906 5905 5904 5904 5904 5903
5862 5864 5866 5867 5868 5869 5870 5871 5873 5875 5877 5878 5879 5880 5882 5883 5884 5885 5886 5888 5890 5891 5891 5892 5892 5893 5893 5893 5893 5894 5895 5896 5897 5898 5899 5900 5901 5902 5903 5904 5904 5904 5906 5907 5906 5907 5908 5909 5909 5909 5910 5909 5908 5908 5908 5908 5909 5909 5909 5909 5910 5910 5910 5909 5908 5908 5909 5910 5910 5909 5908 5907 5907 5906 5906 5905 5905 5905 5904 5903 5902 5902 5901 5900 5899
5859 5860 5861 5862 5863 5864 5865 5867 5869 5871 5873 5874 5874 5875 5877 5878 5880 5881 5881 5883 5884 5886 5886 5887 5888 5888 5888 5888 5888 5889 5891 5892 5892 5893 5894 5894 5895 5896 5898 5899 5899 5900 5901 5902 5902 5902 5903 5903 5904 5905 5905 5905 5905 5904 5903 5903 5904 5905 5905 5905 5906 5905 5905 5905 5904 5904 5904 5905 5905 5904 5904 5903 5903 5902 5901 5901 5901 5901 5901 5900 5899 5899 5898 5896 5895
5857 5857 5858 5859 5859 5860 5862 5863 5864 5865 5867 5868 5869 5871 5872 5873 5875 5876 5877 5878 5880 5881 5881 5882 5883 5883 5884 5883 5882 5883 5885 5887 5887 5887 5889 5889 5889 5889 5891 5894 5894 5895 5896 5898 5898 5898 5898 5898 5898 5899 5900 5901 5901 5900 5899 5897 5899 5900 5900 5901 5902 5901 5900 5900 5901 5902 5901 5900 5900 5899 5899 5900 5900 5899 5898 5897 5897 5897 5897 5896 5895 5895 5894 5893 5891
5855 5855 5855 5856 5857 5858 5858 5859 5860 5860 5862 5863 5865 5867 5868 5868 5869 5872 5874 5875 5875 5876 5876 5877 5876 5877 5877 5876 5876 5877 5879 5881 5882 5882 5883 5884 5884 5884 5885 5887 5888 5890 5892 5893 5893 5893 5892 5892 5893 5893 5894 5895 5896 5896 5894 5893 5894 5895 5895 5895 5896 5896 5895 5896 5897 5898 5897 5896 5895 5895 5895 5895 5896 5896 5895 5894 5893 5893 5893 5891 5890 5889 5889 5888 5887
5852 5853 5853 5854 5855 5855 5855 5856 5856 5857 5858 5859 5860 5862 5864 5864 5864 5866 5870 5872 5871 5870 5869 5869 5869 5869 5870 5870 5871 5872 5873 5874 5875 5875 5875 5877 5879 5879 5879 5881 5883 5885 5886 5886 5886 5887 5888 5887 5887 5888 5889 5889 5890 5890 5890 5889 5889 5890 5890 5890 5890 5890 5889 5890 5892 5892 5891 5891 5892 5891 5890 5891 5892 5892 5890 5890 5890 5889 5887 5886 5885 5885 5884 5883 5882
5849 5850 5851 5852 5852 5852 5852 5852 5853 5854 5854 5855 5856 5858 5860 5860 5860 5860 5863 5864 5864 5862 5861 5861 5861 5862 5864 5865 5865 5865 5865 5866 5868 5868 5868 5869 5872 5873 5874 5875 5878 5879 5880 5880 5880 5881 5883 5882 5882 5883 5884 5883 5883 5883 5884 5885 5885 5885 5885 5885 5885 5885 5884 5884 5886 5887 5885 5886 5886 5886 5886 5887 5887 5886 5885 5885 5884 5884 5882 5880 5879 5879 5879 5877 5877
5846 5847 5848 5849 5850 5849 5849 5849 5849 5850 5850 5851 5852 5853 5855 5856 5856 5856 5856 5857 5856 5856 5857 5857 5857 5858 5859 5859 5859 5859 5859 5859 5860 5861 5861 5863 5865 5867 5868 5870 5871 5872 5873 5874 5874 5875 5876 5876 5877 5878 5878 5877 5877 5877 5878 5878 5879 5880 5880 5880 5880 5880 5880 5880 5881 5881 5880 5881 5881 5880 5881 5882 5881 5880 5879 5878 5878 5878 5877 5874 5873 5874 5873 5872 5871
5843 5844 5845 5846 5846 5846 5847 5847 5847 5847 5847 5847 5848 5848 5849 5850 5851 5851 5851 5852 5852 5853 5854 5854 5855 5856 5856 5854 5853 5853 5853 5853 5854 5854 5855 5857 5859 5860 5862 5863 5865 5866 5866 5867 5867 5869 5869 5870 5871 5872 5872 5872 5872 5872 5872 5872 5873 5874 5875 5875 5875 5875 5875 5876 5876 5875 5876 5877 5876 5875 5875 5877 5876 5874 5872 5872 5872 5873 5872 5868 5867 5868 5868 5867 5866
5841 5842 5842 5843 5843 5843 5844 5844 5844 5844 5844 5844 5844 5845 5845 5846 5846 5846 5847 5847 5848 5849 5850 5850 5851 5852 5852 5851 5849 5848 5847 5848 5849 5849 5851 5852 5853 5854 5855 5857 5858 5859 5860 5860 5861 5862 5863 5864 5864 5865 5866 5866 5867 5867 5867 5867 5868 5869 5869 5869 5870 5869 5870 5871 5871 5870 5870 5871 5872 5870 5870 5871 5871 5869 5867 5867 5867 5867 5867 5863 5861 5862 5862 5862 5861
5838 5839 5839 5840 5840 5840 5840 5841 5841 5841 5841 5841 5842 5842 5842 5842 5843 5843 5843 5843 5844 5845 5845 5846 5846 5847 5847 5846 5846 5844 5843 5843 5844 5845 5846 5847 5848 5848 5850 5851 5852 5853 5853 5854 5854 5855 5856 5857 5858 5859 5860 5861 5861 5862 5862 5862 5863 5864 5864 5864 5864 5864 5864 5865 5865 5865 5865 5865 5866 5865 5865 5865 5865 5863 5863 5863 5862 5862 5862 5859 5856 5856 5857 5857 5856
5835 5835 5836 5836 5837 5837 5837 5838 5838 5838 5838 5838 5838 5839 5839 5839 5839 5840 5840 5840 5840 5841 5842 5842 5843 5843 5842 5842 5842 5841 5840 5839 5840 5840 5841 5841 5842 5843 5844 5846 5847 5847 5847 5848 5848 5849 5850 5851 5852 5853 5854 5855 5855 5856 5856 5857 5857 5858 5858 5858 5858 5858 5859 5859 5859 5859 5859 5859 5859 5859 5859 5860 5860 5858 5858 5858 5857 5857 5856 5854 5852 5852 5852 5852 5852
5831 5832 5832 5833 5833 5833 5833 5834 5834 5834 5835 5835 5835 5835 5836 5836 5837 5837 5837 5837 5837 5838 5839 5839 5839 5839 5838 5838 5838 5838 5837 5837 5837 5837 5837 5837 5838 5839 5840 5841 5841 5841 5842 5843 5843 5843 5843 5844 5845 5846 5847 5848 5849 5849 5850 5851 5851 5852 5852 5852 5852 5852 5852 5853 5852 5853 5853 5853 5854 5854 5854 5854 5854 5853 5853 5853 5852 5851 5850 5848 5847 5846 5846 5846 5846
5828 5829 5829 5830 5830 5830 5830 5830 5830 5830 5831 5831 5831 5832 5832 5832 5833 5833 5834 5833 5833 5834 5834 5835 5835 5835 5835 5834 5834 5834 5834 5835 5835 5835 5835 5835 5835 5835 5836 5836 5836 5837 5838 5838 5837 5836 5837 5838 5839 5840 5841 5842 5842 5843 5844 5844 5845 5845 5845 5845 5846 5846 5846 5847 5847 5847 5847 5848 5848 5848 5848 5849 5849 5848 5848 5847 5846 5844 5843 5841 5840 5840 5840 5840 5841
5825 5825 5826 5827 5827 5827 5827 5827 5827 5827 5827 5827 5827 5828 5828 5828 5828 5829 5829 5829 5829 5830 5830 5830 5831 5831 5831 5831 5831 5831 5831 5831 5832 5832 5832 5832 5832 5832 5832 5832 5832 5833 5834 5833 5833 5833 5834 5834 5834 5834 5835 5835 5835 5836 5837 5838 5838 5839 5839 5839 5840 5840 5840 5841 5841 5841 5842 5842 5842 5842 5842 5843 5842 5843 5843 5842 5840 5838 5837 5835 5834 5834 5835 5835 5836
5821 5822 5822 5823 5824 5824 5824 5824 5824 5824 5824 5824 5824 5824 5824 5824 5824 5824 5824 5825 5825 5825 5826 5826 5826 5827 5827 5827 5827 5827 5827 5827 5828 5828 5828 5828 5828 5828 5828 5828 5828 5829 5829 5829 5829 5829 5830 5830 5829 5829 5829 5829 5829 5830 5831 5831 5832 5832 5833 5833 5834 5834 5834 5834 5835 5835 5836 5836 5836 5836 5836 5837 5837 5837 5837 5836 5835 5833 5832 5830 5829 5829 5830 5831 5831
5817 5818 5818 5819 5820 5820 5820 5821 5821 5821 5821 5821 5821 5821 5820 5820 5820 5820 5820 5821 5821 5821 5821 5822 5822 5822 5822 5823 5823 5823 5823 5823 5823 5823 5823 5823 5823 5823 5823 5823 5823 5823 5824 5824 5824 5824 5825 5825 5825 5825 5825 5825 5825 5825 5825 5826 5826 5826 5827 5827 5827 5828 5828 5828 5829 5829 5830 5830 5830 5831 5831 5831 5831 5830 5830 5829 5828 5827 5827 5825 5825 5825 5825 5826 5826
5814 5814 5815 5815 5815 5816 5816 5817 5817 5817 5817 5817 5817 5817 5817 5817 5817 5817 5817 5817 5817 5817 5817 5817 5817 5817 5817 5818 5818 5818 5818 5818 5818 5818 5818 5818 5818 5818 5817 5817 5817 5817 5818 5818 5818 5818 5819 5819 5819 5820 5820 5820 5820 5820 5820 5821 5821 5821 5821 5822 5822 5822 5822 5822 5823 5824 5824 5824 5824 5825 5826 5826 5825 5824 5822 5822 5821 5821 5821 5821 5820 5820 5820 5819 5818
5810 5811 5811 5811 5811 5812 5812 5812 5813 5813 5813 5813 5813 5813 5813 5813 5813 5812 5812 5812 5812 5812 5812 5812 5812 5812 5812 5812 5812 5812 5812 5813 5813 5813 5812 5812 5812 5812 5812 5812 5812 5812 5812 5812 5812 5812 5813 5813 5813 5814 5814 5814 5814 5814 5815 5815 5815 5815 5816 5816 5816 5816 5816 5816 5817 5817 5818 5818 5818 5819 5820 5820 5819 5817 5816 5815 5815 5815 5815 5815 5814 5813 5813 5812 5811
5807 5807 5807 5807 5808 5808 5808 5808 5808 5808 5808 5809 5809 5808 5808 5808 5808 5808 5808 5808 5808 5808 5807 5807 5807 5807 5807 5807 5807 5807 5807 5807 5807 5807 5807 5807 5807 5806 5806 5806 5806 5806 5806 5806 5806 5806 5807 5807 5807 5807 5807 5807 5808 5808 5808 5809 5809 5809 5810 5810 5810 5810 5810 5810 5810 5810 5810 5811 5811 5812 5812 5813 5812 5811 5809 5808 5807 5807 5807 5807 5807 5806 5806 5805 5805
5804 5804 5804 5804 5804 5804 5804 5804 5804 5804 5804 5804 5804 5803 5803 5803 5803 5803 5803 5803 5803 5803 5802 5802 5801 5801 5801 5801 5801 5801 5800 5800 5801 5801 5801 5801 5801 5801 5800 5800 5800 5800 5800 5800 5800 5800 5800 5800 5800 5800 5800 5800 5801 5801 5801 5801 5802 5802 5802 5803 5803 5803 5803 5803 5803 5803 5803 5803 5804 5804 5805 5805 5805 5804 5803 5801 5800 5800 5800 5799 5799 5798 5798 5798 5798
5801 5801 5801 5800 5800 5800 5800 5800 5800 5800 5799 5799 5799 5798 5798 5798 5798 5798 5798 5798 5797 5797 5797 5797 5796 5796 5796 5795 5794 5794 5794 5794 5794 5794 5794 5794 5794 5794 5794 5794 5794 5793 5793 5793 5793 5793 5793 5793 5793 5793 5794 5793 5794 5794 5794 5794 5794 5795 5795 5795 5795 5795 5796 5796 5795 5795 5796 5796 5796 5796 5797 5797 5797 5797 5796 5795 5794 5793 5793 5792 5792 5791 5791 5791 5791
5798 5798 5797 5797 5797 5797 5797 5797 5796 5796 5795 5795 5794 5794 5793 5793 5792 5792 5792 5792 5792 5791 5791 5791 5791 5790 5790 5790 5788 5787 5787 5787 5787 5787 5786 5786 5786 5787 5787 5787 5787 5787 5786 5786 5786 5786 5786 5786 5786 5786 5786 5786 5786 5786 5787 5787 5787 5787 5787 5787 5787 5787 5788 5788 5788 5788 5788 5788 5788 5788 5788 5788 5788 5788 5787 5787 5786 5786 5786 5786 5785 5784 5784 5783 5783
5796 5795 5795 5794 5794 5794 5794 5793 5793 5792 5791 5791 5790 5789 5788 5787 5787 5786 5785 5785 5785 5785 5785 5785 5785 5785 5785 5784 5782 5781 5780 5780 5780 5779 5779 5779 5779 5779 5779 5779 5779 5779 5779 5779 5779 5778 5778 5778 5778 5778 5778 5778 5778 5778 5778 5779 5779 5779 5779 5779 5779 5779 5779 5779 5780 5780 5780 5779 5779 5779 5779 5779 5779 5779 5778 5778 5777 5777 5777 5777 5777 5776 5776 5775 5775
5792 5792 5792 5791 5790 5790 5790 5789 5789 5788 5787 5786 5785 5784 5783 5782 5781 5780 5779 5778 5778 5778 5778 5778 5778 5778 5779 5778 5776 5774 5773 5773 5773 5772 5772 5771 5771 5771 5771 5771 5771 5771 5771 5771 5771 5771 5770 5770 5770 5770 5770 5770 5770 5770 5769 5769 5770 5770 5771 5771 5771 5771 5771 5771 5771 5771 5771 5771 5770 5770 5770 5770 5770 5770 5770 5769 5769 5768 5768 5768 5768 5768 5767 5766 5766
5788 5788 5788 5787 5786 5786 5786 5785 5784 5783 5782 5781 5780 5779 5778 5777 5775 5774 5773 5772 5771 5771 5770 5769 5769 5771 5772 5771 5769 5767 5766 5765 5766 5765 5764 5764 5763 5763 5763 5763 5762 5762 5762 5762 5762 5762 5762 5762 5761 5761 5761 5761 5761 5761 5761 5761 5761 5761 5761 5761 5762 5762 5762 5762 5762 5762 5762 5762 5762 5761 5761 5761 5761 5761 5760 5760 5759 5759 5759 5759 5759 5759 5758 5757 5757
5784 5784 5784 5783 5782 5782 5781 5780 5779 5778 5777 5776 5775 5773 5772 5771 5770 5768 5767 5766 5765 5764 5763 5761 5760 5762 5763 5763 5762 5760 5758 5757 5758 5759 5757 5756 5756 5755 5755 5754 5754 5753 5753 5753 5753 5753 5753 5753 5753 5753 5753 5753 5752 5752 5752 5752 5752 5752 5752 5752 5752 5752 5752 5753 5753 5752 5752 5752 5752 5752 5752 5752 5751 5751 5751 5751 5750 5750 5750 5749 5749 5749 5749 5748 5748
5780 5779 5779 5778 5778 5777 5776 5775 5774 5773 5772 5770 5769 5768 5766 5764 5763 5762 5762 5760 5759 5758 5756 5754 5753 5754 5754 5753 5753 5752 5750 5749 5750 5750 5749 5749 5749 5748 5746 5745 5746 5745 5744 5744 5744 5744 5743 5744 5744 5744 5744 5744 5744 5744 5744 5743 5743 5744 5744 5744 5743 5743 5744 5744 5744 5743 5743 5743 5743 5743 5743 5742 5742 5742 5742 5742 5741 5741 5741 5741 5740 5740 5740 5740 5739
5776 5775 5774 5773 5773 5771 5770 5769 5768 5767 5766 5764 5763 5762 5760 5759 5757 5756 5755 5754 5752 5750 5748 5747 5746 5746 5745 5744 5743 5743 5742 5741 5741 5742 5742 5741 5740 5739 5737 5737 5738 5738 5736 5735 5735 5735 5734 5734 5735 5735 5735 5735 5735 5734 5735 5735 5735 5735 5735 5734 5734 5735 5735 5735 5734 5734 5734 5734 5734 5734 5734 5734 5733 5733 5733 5733 5732 5732 5732 5732 5731 5731 5731 5731 5731
5771 5770 5769 5768 5767 5766 5765 5763 5762 5760 5759 5758 5756 5755 5754 5752 5750 5749 5748 5747 5745 5743 5741 5739 5739 5738 5737 5736 5735 5734 5733 5732 5731 5733 5733 5732 5731 5730 5728 5728 5730 5730 5727 5726 5727 5726 5725 5725 5726 5725 5725 5725 5725 5725 5726 5726 5725 5726 5726 5726 5726 5726 5727 5726 5725 5725 5725 5725 5725 5725 5725 5725 5725 5725 5725 5725 5724 5724 5724 5724 5723 5722 5722 5722 5722
5766 5765 5764 5762 5761 5760 5759 5757 5756 5754 5752 5751 5749 5748 5746 5745 5743 5742 5741 5739 5738 5736 5733 5732 5731 5729 5728 5728 5727 5726 5724 5723 5722 5723 5723 5723 5722 5721 5719 5719 5721 5721 5718 5717 5718 5718 5716 5716 5716 5716 5716 5716 5716 5716 5717 5716 5716 5717 5717 5717 5717 5718 5718 5717 5717 5718 5717 5717 5716 5716 5716 5716 5717 5716 5716 5716 5716 5715 5715 5715 5714 5714 5713 5713 5712
5761 5760 5758 5757 5756 5754 5753 5751 5749 5748 5746 5744 5742 5740 5739 5737 5736 5735 5733 5731 5730 5728 5726 5724 5723 5721 5720 5720 5719 5718 5716 5715 5714 5714 5715 5714 5712 5712 5711 5711 5711 5711 5709 5708 5708 5709 5708 5707 5706 5707 5707 5707 5707 5707 5707 5708 5708 5708 5708 5708 5708 5709 5709 5709 5709 5710 5709 5708 5708 5708 5707 5708 5708 5708 5707 5707 5707 5706 5706 5706 5705 5705 5705 5704 5703
5756 5754 5753 5751 5750 5748 5747 5745 5743 5741 5739 5737 5735 5733 5731 5730 5728 5726 5725 5723 5722 5721 5719 5716 5715 5714 5713 5712 5711 5710 5708 5706 5705 5705 5707 5706 5704 5702 5702 5702 5701 5700 5699 5699 5699 5699 5699 5698 5697 5697 5698 5698 5698 5698 5698 5699 5699 5700 5700 5699 5699 5700 5700 5700 5701 5701 5700 5699 5699 5699 5699 5699 5699 5699 5698 5698 5698 5697 5697 5697 5697 5696 5696 5695 5694
5750 5749 5747 5745 5744 5742 5740 5738 5736 5734 5732 5729 5727 5725 5724 5722 5720 5719 5717 5715 5714 5713 5711 5709 5707 5706 5705 5703 5702 5701 5700 5699 5696 5696 5697 5697 5696 5695 5694 5693 5691 5689 5688 5689 5690 5691 5690 5688 5687 5688 5689 5689 5688 5689 5689 5689 5690 5692 5692 5690 5689 5690 5692 5692 5691 5692 5692 5691 5690 5690 5690 5690 5690 5690 5690 5690 5689 5689 5689 5688 5688 5688 5687 5686 5686
5744 5742 5741 5739 5737 5735 5733 5731 5729 5727 5725 5722 5720 5718 5716 5715 5713 5711 5710 5708 5706 5705 5703 5701 5700 5698 5696 5694 5693 5692 5691 5690 5689 5688 5688 5688 5688 5687 5685 5684 5682 5680 5678 5678 5680 5681 5681 5680 5679 5678 5678 5679 5679 5679 5679 5680 5681 5682 5683 5681 5680 5681 5683 5683 5682 5683 5683 5682 5682 5682 5682 5682 5681 5681 5681 5682 5681 5681 5680 5680 5680 5680 5679 5679 5678
5737 5736 5734 5732 5730 5728 5726 5724 5722 5719 5717 5715 5713 5711 5709 5708 5706 5704 5702 5701 5699 5697 5695 5694 5692 5690 5688 5687 5686 5684 5683 5682 5682 5681 5681 5681 5680 5679 5678 5676 5675 5673 5670 5668 5668 5670 5671 5671 5670 5669 5669 5669 5669 5670 5670 5671 5671 5672 5672 5672 5672 5672 5673 5673 5673 5674 5674 5674 5674 5674 5674 5674 5674 5674 5674 5674 5674 5673 5673 5673 5672 5672 5672 5671 5671
5731 5729 5727 5725 5723 5721 5719 5716 5714 5712 5710 5708 5706 5704 5702 5700 5699 5697 5695 5693 5691 5689 5687 5687 5685 5683 5681 5680 5679 5677 5676 5675 5674 5673 5673 5673 5672 5671 5670 5668 5666 5665 5663 5661 5660 5660 5661 5661 5661 5661 5660 5660 5660 5660 5661 5662 5662 5662 5663 5663 5663 5663 5664 5664 5664 5665 5665 5665 5666 5666 5666 5666 5666 5666 5666 5666 5666 5666 5666 5666 5665 5665 5665 5664 5664